| time (UTC) | temp F | wind direction | speed MPH | gust MPH | rain 1hr in | rain 24hr in | rain mn in | humidity % | barometer mb |
| 20260906194820 | 92 | 354 | 2.0 | 4.0 | 0.00 | 0.98 | 0.91 | 66 | 1009.5 |
| 20260906194320 | 92 | 144 | 0.0 | 0.0 | 0.00 | 0.98 | 0.91 | 66 | 1009.8 |
| 20260906193818 | 92 | 346 | 2.0 | 6.0 | 0.00 | 0.98 | 0.91 | 68 | 1009.8 |
| 20260906193319 | 92 | 52 | 1.0 | 2.0 | 0.00 | 0.98 | 0.91 | 66 | 1009.8 |
| 20260906192820 | 92 | 48 | 1.0 | 1.0 | 0.00 | 0.98 | 0.91 | 67 | 1010.1 |
| 20260906192223 | 92 | 336 | 0.0 | 3.0 | 0.00 | 0.98 | 0.91 | 65 | 1010.1 |
| 20260906191723 | 92 | 30 | 2.0 | 3.0 | 0.00 | 0.98 | 0.91 | 64 | 1010.1 |
| 20260906191222 | 91 | 100 | 1.0 | 2.0 | 0.00 | 0.98 | 0.91 | 64 | 1010.5 |
| 20260906190724 | 91 | 59 | 0.0 | 1.0 | 0.00 | 0.98 | 0.91 | 66 | 1010.5 |
| 20260906190223 | 91 | 332 | 2.0 | 2.0 | 0.00 | 0.98 | 0.91 | 67 | 1010.5 |
| 20260906185722 | 90 | 0 | 0.0 | 1.0 | 0.00 | 0.98 | 0.91 | 67 | 1010.9 |
| 20260906185223 | 90 | 356 | 1.0 | 1.0 | 0.00 | 0.98 | 0.91 | 65 | 1010.9 |
| 20260906184723 | 90 | 10 | 3.0 | 4.0 | 0.00 | 0.98 | 0.91 | 66 | 1010.9 |
| 20260906184222 | 91 | 271 | 0.0 | 1.0 | 0.00 | 0.98 | 0.91 | 66 | 1011.1 |
| 20260906183722 | 91 | 275 | 0.0 | 1.0 | 0.00 | 0.98 | 0.91 | 67 | 1011.1 |
| 20260906183223 | 91 | 332 | 2.0 | 2.0 | 0.00 | 0.98 | 0.91 | 67 | 1011.1 |
| 20260906182722 | 91 | 0 | 2.0 | 2.0 | 0.00 | 0.98 | 0.91 | 65 | 1011.1 |
| 20260906182222 | 91 | 356 | 0.0 | 1.0 | 0.00 | 0.98 | 0.91 | 62 | 1011.1 |
| 20260906181723 | 91 | 23 | 2.0 | 2.0 | 0.00 | 0.98 | 0.91 | 64 | 1011.1 |
| 20260906181222 | 91 | 0 | 0.0 | 0.0 | 0.00 | 0.98 | 0.91 | 63 | 1011.3 |
| 20260906180722 | 91 | 329 | 0.0 | 2.0 | 0.00 | 0.98 | 0.91 | 63 | 1011.3 |
| 20260906180223 | 91 | 230 | 0.0 | 0.0 | 0.00 | 0.98 | 0.91 | 64 | 1011.3 |
| 20260906175722 | 91 | 230 | 0.0 | 1.0 | 0.00 | 0.98 | 0.91 | 64 | 1011.5 |
| 20260906175223 | 90 | 336 | 0.0 | 1.0 | 0.00 | 0.98 | 0.91 | 66 | 1011.5 |
| 20260906174722 | 90 | 342 | 0.0 | 0.0 | 0.00 | 0.98 | 0.91 | 63 | 1011.5 |
| 20260906174224 | 90 | 342 | 0.0 | 0.0 | 0.00 | 0.98 | 0.91 | 66 | 1011.6 |
| 20260906173722 | 90 | 7 | 0.0 | 1.0 | 0.00 | 0.98 | 0.91 | 73 | 1011.6 |
| 20260906173223 | 89 | 275 | 0.0 | 0.0 | 0.00 | 0.98 | 0.91 | 69 | 1011.6 |
| 20260906172723 | 89 | 325 | 0.0 | 0.0 | 0.00 | 0.98 | 0.91 | 72 | 1012.0 |
| 20260906172223 | 89 | 318 | 0.0 | 3.0 | 0.00 | 0.98 | 0.91 | 70 | 1012.0 |
| 20260906171724 | 88 | 335 | 1.0 | 2.0 | 0.00 | 0.98 | 0.91 | 71 | 1012.0 |
| 20260906171223 | 88 | 251 | 0.0 | 2.0 | 0.00 | 0.98 | 0.91 | 69 | 1011.9 |
| 20260906170723 | 88 | 296 | 4.0 | 4.0 | 0.00 | 0.98 | 0.91 | 75 | 1011.9 |
| 20260906170224 | 88 | 13 | 1.0 | 2.0 | 0.00 | 0.98 | 0.91 | 76 | 1011.9 |
| 20260906165724 | 87 | 347 | 1.0 | 1.0 | 0.00 | 0.98 | 0.91 | 77 | 1012.2 |
| 20260906165222 | 87 | 51 | 1.0 | 1.0 | 0.00 | 0.98 | 0.91 | 78 | 1012.2 |
| 20260906164723 | 87 | 95 | 0.0 | 1.0 | 0.00 | 0.98 | 0.91 | 76 | 1012.2 |
| 20260906164224 | 87 | 104 | 0.0 | 0.0 | 0.00 | 0.98 | 0.91 | 75 | 1012.3 |
| 20260906163722 | 86 | 128 | 1.0 | 1.0 | 0.00 | 0.98 | 0.91 | 75 | 1012.3 |
| 20260906163224 | 86 | 64 | 2.0 | 2.0 | 0.00 | 0.98 | 0.91 | 75 | 1012.3 |
| 20260906162723 | 85 | 93 | 0.0 | 0.0 | 0.00 | 0.98 | 0.91 | 76 | 1012.5 |
| 20260906162222 | 85 | 295 | 0.0 | 1.0 | 0.00 | 0.98 | 0.91 | 80 | 1012.5 |
| 20260906161723 | 85 | 268 | 1.0 | 3.0 | 0.00 | 0.98 | 0.91 | 80 | 1012.5 |
| 20260906161223 | 85 | 237 | 1.0 | 2.0 | 0.00 | 0.98 | 0.91 | 80 | 1012.4 |
| 20260906160722 | 84 | 195 | 0.0 | 0.0 | 0.00 | 0.98 | 0.91 | 82 | 1012.4 |
| 20260906160223 | 84 | 147 | 0.0 | 1.0 | 0.00 | 0.98 | 0.91 | 83 | 1012.4 |
| 20260906155723 | 84 | 160 | 2.0 | 2.0 | 0.00 | 0.98 | 0.91 | 85 | 1012.5 |
| 20260906155224 | 83 | 356 | 2.0 | 2.0 | 0.00 | 0.98 | 0.91 | 85 | 1012.5 |
| 20260906154724 | 83 | 52 | 0.0 | 0.0 | 0.00 | 0.98 | 0.91 | 85 | 1012.5 |
| 20260906154222 | 83 | 52 | 0.0 | 1.0 | 0.00 | 0.98 | 0.91 | 87 | 1012.5 |
| 20260906154156 | 82 | 264 | 0.0 | 0.0 | 0.00 | 0.98 | 0.91 | 87 | 1012.5 |
| 20260906153723 | 82 | 215 | 0.0 | 0.0 | 0.00 | 0.98 | 0.91 | 87 | 1012.5 |
| 20260906153223 | 81 | 150 | 0.0 | 1.0 | 0.00 | 0.98 | 0.91 | 89 | 1012.5 |
| 20260906153156 | 81 | 151 | 1.0 | 1.0 | 0.00 | 0.98 | 0.91 | 89 | 1012.5 |
| 20260906152722 | 81 | 246 | 0.0 | 0.0 | 0.00 | 0.98 | 0.91 | 90 | 1012.4 |
| 20260906152224 | 80 | 172 | 0.0 | 0.0 | 0.00 | 0.98 | 0.91 | 90 | 1012.4 |
| 20260906152200 | 80 | 172 | 0.0 | 1.0 | 0.00 | 0.98 | 0.91 | 90 | 1012.4 |
| 20260906151722 | 80 | 178 | 0.0 | 0.0 | 0.00 | 0.98 | 0.91 | 90 | 1012.4 |
| 20260906151223 | 80 | 179 | 1.0 | 1.0 | 0.00 | 0.98 | 0.91 | 90 | 1012.4 |
| 20260906151201 | 80 | 160 | 0.0 | 0.0 | 0.00 | 0.98 | 0.91 | 90 | 1012.4 |
| 20260906150724 | 80 | 148 | 0.0 | 0.0 | 0.00 | 0.98 | 0.91 | 90 | 1012.4 |
| 20260906150222 | 79 | 147 | 0.0 | 3.0 | 0.00 | 0.98 | 0.91 | 91 | 1012.4 |
| 20260906150155 | 79 | 151 | 3.0 | 3.0 | 0.00 | 0.98 | 0.91 | 91 | 1012.4 |
| 20260906145723 | 78 | 174 | 1.0 | 1.0 | 0.00 | 0.98 | 0.91 | 93 | 1012.2 |
| 20260906145223 | 78 | 157 | 0.0 | 1.0 | 0.00 | 0.98 | 0.91 | 94 | 1012.2 |
| 20260906145158 | 78 | 215 | 0.0 | 1.0 | 0.00 | 0.98 | 0.91 | 94 | 1012.2 |
| 20260906144723 | 78 | 213 | 0.0 | 2.0 | 0.00 | 0.98 | 0.91 | 94 | 1012.2 |
| 20260906144222 | 78 | 152 | 0.0 | 0.0 | 0.00 | 0.98 | 0.91 | 97 | 1012.1 |
| 20260906144158 | 78 | 152 | 0.0 | 2.0 | 0.00 | 0.98 | 0.91 | 97 | 1012.1 |
| 20260906143723 | 77 | 196 | 0.0 | 3.0 | 0.00 | 0.98 | 0.91 | 100 | 1012.1 |
| 20260906143231 | 77 | 210 | 0.0 | 2.0 | 0.00 | 0.98 | 0.91 | 100 | 1012.1 |
| 20260906143223 | 77 | 253 | 1.0 | 1.0 | 0.00 | 0.98 | 0.91 | 100 | 1012.1 |
| 20260906143159 | 77 | 210 | 0.0 | 2.0 | 0.00 | 0.98 | 0.91 | 100 | 1012.1 |
| 20260906142722 | 77 | 208 | 0.0 | 0.0 | 0.00 | 0.98 | 0.91 | 100 | 1012.5 |
| 20260906142223 | 77 | 137 | 0.0 | 0.0 | 0.00 | 0.98 | 0.91 | 100 | 1012.5 |
| 20260906142155 | 77 | 179 | 0.0 | 0.0 | 0.00 | 0.98 | 0.91 | 100 | 1012.5 |
| 20260906141723 | 76 | 209 | 0.0 | 1.0 | 0.00 | 0.98 | 0.91 | 100 | 1012.5 |
| 20260906141222 | 76 | 246 | 0.0 | 0.0 | 0.00 | 0.98 | 0.91 | 100 | 1012.2 |
| 20260906141201 | 76 | 244 | 0.0 | 0.0 | 0.00 | 0.98 | 0.91 | 100 | 1012.2 |
| 20260906140722 | 75 | 212 | 0.0 | 0.0 | 0.00 | 0.98 | 0.91 | 100 | 1012.2 |
| 20260906140224 | 75 | 155 | 0.0 | 0.0 | 0.00 | 0.98 | 0.91 | 100 | 1012.2 |
| 20260906140202 | 75 | 155 | 0.0 | 1.0 | 0.00 | 0.98 | 0.91 | 100 | 1012.2 |
| 20260906135722 | 75 | 193 | 0.0 | 0.0 | 0.00 | 0.98 | 0.91 | 100 | 1012.3 |
| 20260906135240 | 75 | 217 | 2.0 | 2.0 | 0.00 | 0.98 | 0.91 | 100 | 1012.3 |
| 20260906135223 | 75 | 165 | 0.0 | 2.0 | 0.00 | 0.98 | 0.91 | 100 | 1012.3 |
| 20260906135157 | 75 | 217 | 2.0 | 2.0 | 0.00 | 0.98 | 0.91 | 100 | 1012.3 |
| 20260906134722 | 75 | 161 | 1.0 | 2.0 | 0.00 | 0.98 | 0.91 | 100 | 1012.3 |
| 20260906134223 | 74 | 219 | 0.0 | 0.0 | 0.00 | 0.98 | 0.91 | 100 | 1012.4 |
| 20260906134157 | 74 | 216 | 0.0 | 2.0 | 0.00 | 0.98 | 0.91 | 100 | 1012.4 |
| 20260906133723 | 74 | 216 | 0.0 | 1.0 | 0.00 | 0.98 | 0.91 | 100 | 1012.4 |
| 20260906133617 | 74 | 212 | 0.0 | 0.0 | 0.00 | 0.98 | 0.91 | 100 | 1012.4 |
| 20260906133222 | 74 | 151 | 0.0 | 0.0 | 0.00 | 0.98 | 0.91 | 100 | 1012.4 |
| 20260906133201 | 74 | 212 | 0.0 | 0.0 | 0.00 | 0.98 | 0.91 | 100 | 1012.4 |
| 20260906132723 | 74 | 158 | 0.0 | 0.0 | 0.00 | 0.98 | 0.91 | 100 | 1012.3 |
| 20260906132223 | 74 | 150 | 2.0 | 3.0 | 0.00 | 0.98 | 0.91 | 100 | 1012.3 |
| 20260906132156 | 74 | 171 | 1.0 | 4.0 | 0.00 | 0.98 | 0.91 | 100 | 1012.3 |
| 20260906131723 | 73 | 143 | 0.0 | 1.0 | 0.00 | 0.98 | 0.91 | 100 | 1012.3 |
| 20260906131230 | 73 | 306 | 0.0 | 0.0 | 0.00 | 0.98 | 0.91 | 100 | 1012.3 |
| 20260906131224 | 73 | 306 | 0.0 | 0.0 | 0.00 | 0.98 | 0.91 | 100 | 1012.3 |
| 20260906131157 | 73 | 306 | 0.0 | 0.0 | 0.00 | 0.98 | 0.91 | 100 | 1012.3 |
| 20260906130722 | 72 | 346 | 0.0 | 1.0 | 0.00 | 0.98 | 0.91 | 100 | 1012.3 |
| 20260906130223 | 72 | 0 | 1.0 | 3.0 | 0.00 | 0.98 | 0.91 | 100 | 1012.3 |
| 20260906130157 | 72 | 11 | 1.0 | 3.0 | 0.00 | 0.98 | 0.91 | 100 | 1012.3 |
| 20260906125723 | 72 | 7 | 0.0 | 4.0 | 0.00 | 0.98 | 0.91 | 100 | 1012.2 |
| 20260906125223 | 72 | 0 | 5.0 | 6.0 | 0.00 | 0.98 | 0.91 | 100 | 1012.2 |
| 20260906125157 | 72 | 346 | 3.0 | 3.0 | 0.00 | 0.98 | 0.91 | 100 | 1012.2 |
| 20260906124724 | 72 | 0 | 4.0 | 4.0 | 0.00 | 0.98 | 0.91 | 100 | 1012.2 |
| 20260906124223 | 72 | 346 | 1.0 | 2.0 | 0.00 | 0.98 | 0.91 | 100 | 1012.0 |
| 20260906124158 | 72 | 352 | 0.0 | 3.0 | 0.00 | 0.98 | 0.91 | 100 | 1012.0 |
| 20260906123723 | 72 | 322 | 1.0 | 1.0 | 0.00 | 0.98 | 0.91 | 100 | 1012.0 |
| 20260906123224 | 72 | 342 | 1.0 | 1.0 | 0.00 | 0.98 | 0.91 | 100 | 1012.0 |
| 20260906123157 | 72 | 198 | 0.0 | 0.0 | 0.00 | 0.98 | 0.91 | 100 | 1012.0 |
| 20260906122722 | 72 | 38 | 0.0 | 0.0 | 0.00 | 0.98 | 0.91 | 100 | 1011.6 |
| 20260906122223 | 72 | 102 | 0.0 | 0.0 | 0.00 | 0.98 | 0.91 | 100 | 1011.6 |
| 20260906122157 | 72 | 102 | 0.0 | 0.0 | 0.00 | 0.98 | 0.91 | 100 | 1011.6 |
| 20260906121723 | 72 | 352 | 5.0 | 5.0 | 0.00 | 0.98 | 0.91 | 100 | 1011.6 |
| 20260906121233 | 71 | 1 | 4.0 | 4.0 | 0.00 | 0.98 | 0.91 | 100 | 1011.4 |
| 20260906121223 | 71 | 352 | 10.0 | 10.0 | 0.00 | 0.98 | 0.91 | 100 | 1011.4 |
| 20260906121200 | 71 | 1 | 4.0 | 4.0 | 0.00 | 0.98 | 0.91 | 100 | 1011.4 |
| 20260906120724 | 71 | 350 | 9.0 | 9.0 | 0.00 | 0.98 | 0.91 | 100 | 1011.4 |
| 20260906120222 | 71 | 326 | 3.0 | 9.0 | 0.00 | 0.98 | 0.91 | 100 | 1011.4 |
| 20260906120201 | 71 | 1 | 3.0 | 5.0 | 0.00 | 0.98 | 0.91 | 100 | 1011.4 |
| 20260906115722 | 71 | 313 | 5.0 | 7.0 | 0.00 | 0.98 | 0.91 | 100 | 1011.4 |
| 20260906115404 | 71 | 0 | 4.0 | 4.0 | 0.00 | 0.98 | 0.91 | 100 | 1011.4 |
| 20260906115246 | 71 | 0 | 4.0 | 4.0 | 0.00 | 0.98 | 0.91 | 100 | 1011.4 |
| 20260906115222 | 71 | 356 | 5.0 | 5.0 | 0.00 | 0.98 | 0.91 | 100 | 1011.4 |
| 20260906115209 | 71 | 0 | 4.0 | 4.0 | 0.00 | 0.98 | 0.91 | 100 | 1011.4 |
| 20260906114723 | 71 | 330 | 2.0 | 7.0 | 0.00 | 0.98 | 0.91 | 100 | 1011.4 |
| 20260906114222 | 71 | 350 | 3.0 | 4.0 | 0.00 | 0.98 | 0.91 | 100 | 1011.5 |
| 20260906114157 | 71 | 0 | 3.0 | 5.0 | 0.00 | 0.98 | 0.91 | 100 | 1011.5 |
| 20260906113722 | 71 | 354 | 2.0 | 2.0 | 0.00 | 0.98 | 0.91 | 100 | 1011.5 |
| 20260906113223 | 71 | 350 | 4.0 | 6.0 | 0.00 | 0.98 | 0.91 | 100 | 1011.5 |
| 20260906113156 | 71 | 343 | 1.0 | 5.0 | 0.00 | 0.98 | 0.91 | 100 | 1011.5 |
| 20260906112722 | 71 | 272 | 4.0 | 7.0 | 0.01 | 0.98 | 0.91 | 100 | 1011.4 |
| 20260906112223 | 71 | 323 | 5.0 | 6.0 | 0.01 | 0.98 | 0.91 | 100 | 1011.4 |
| 20260906112157 | 71 | 0 | 4.0 | 5.0 | 0.01 | 0.98 | 0.91 | 100 | 1011.4 |
| 20260906111722 | 71 | 1 | 2.0 | 3.0 | 0.01 | 0.98 | 0.91 | 100 | 1011.4 |
| 20260906111223 | 71 | 0 | 1.0 | 2.0 | 0.01 | 0.98 | 0.91 | 100 | 1011.4 |
| 20260906111208 | 71 | 0 | 2.0 | 4.0 | 0.01 | 0.98 | 0.91 | 100 | 1011.4 |
| 20260906110723 | 71 | 337 | 2.0 | 4.0 | 0.02 | 0.98 | 0.91 | 100 | 1011.4 |
| 20260906110222 | 71 | 113 | 0.0 | 0.0 | 0.02 | 0.98 | 0.91 | 100 | 1011.4 |
| 20260906110157 | 71 | 113 | 0.0 | 0.0 | 0.02 | 0.98 | 0.91 | 100 | 1011.4 |
| 20260906105724 | 71 | 113 | 0.0 | 0.0 | 0.04 | 0.98 | 0.91 | 100 | 1011.4 |
| 20260906105222 | 71 | 113 | 0.0 | 0.0 | 0.04 | 0.98 | 0.91 | 100 | 1011.4 |
| 20260906105158 | 71 | 113 | 0.0 | 0.0 | 0.04 | 0.98 | 0.91 | 100 | 1011.4 |
| 20260906104723 | 71 | 92 | 0.0 | 1.0 | 0.06 | 0.98 | 0.91 | 100 | 1011.4 |
| 20260906104223 | 71 | 103 | 0.0 | 2.0 | 0.06 | 0.98 | 0.91 | 100 | 1011.5 |
| 20260906104157 | 71 | 88 | 0.0 | 2.0 | 0.06 | 0.98 | 0.91 | 100 | 1011.5 |
| 20260906103723 | 71 | 85 | 1.0 | 1.0 | 0.11 | 0.98 | 0.91 | 100 | 1011.5 |
| 20260906103223 | 71 | 61 | 3.0 | 3.0 | 0.11 | 0.98 | 0.91 | 100 | 1011.5 |
| 20260906103156 | 71 | 89 | 2.0 | 2.0 | 0.11 | 0.98 | 0.91 | 100 | 1011.5 |
| 20260906102724 | 71 | 116 | 0.0 | 0.0 | 0.19 | 0.97 | 0.90 | 100 | 1011.6 |
| 20260906102222 | 71 | 150 | 0.0 | 0.0 | 0.19 | 0.97 | 0.90 | 100 | 1011.6 |
| 20260906102157 | 71 | 150 | 0.0 | 0.0 | 0.19 | 0.97 | 0.90 | 100 | 1011.6 |
| 20260906101723 | 71 | 66 | 0.0 | 0.0 | 0.45 | 0.97 | 0.90 | 100 | 1011.6 |
| 20260906101223 | 71 | 66 | 0.0 | 0.0 | 0.45 | 0.97 | 0.90 | 100 | 1012.1 |
| 20260906101201 | 71 | 66 | 0.0 | 0.0 | 0.45 | 0.97 | 0.90 | 100 | 1012.1 |
| 20260906100722 | 71 | 58 | 2.0 | 3.0 | 0.53 | 0.97 | 0.90 | 100 | 1012.1 |
| 20260906100223 | 72 | 48 | 1.0 | 3.0 | 0.52 | 0.96 | 0.89 | 100 | 1012.1 |
| 20260906100159 | 72 | 31 | 2.0 | 2.0 | 0.52 | 0.96 | 0.89 | 100 | 1012.1 |
| 20260906095724 | 72 | 52 | 4.0 | 4.0 | 0.53 | 0.96 | 0.89 | 100 | 1012.9 |
| 20260906095222 | 72 | 31 | 3.0 | 3.0 | 0.51 | 0.94 | 0.87 | 100 | 1012.9 |
| 20260906095157 | 72 | 34 | 1.0 | 2.0 | 0.51 | 0.94 | 0.87 | 100 | 1012.9 |
| 20260906094723 | 72 | 13 | 5.0 | 5.0 | 0.50 | 0.93 | 0.86 | 100 | 1012.9 |
| 20260906094224 | 72 | 54 | 5.0 | 6.0 | 0.49 | 0.92 | 0.85 | 100 | 1013.1 |
| 20260906094156 | 72 | 49 | 1.0 | 4.0 | 0.49 | 0.92 | 0.85 | 100 | 1013.1 |
| 20260906093722 | 72 | 51 | 5.0 | 5.0 | 0.48 | 0.91 | 0.84 | 100 | 1013.1 |
| 20260906093223 | 72 | 66 | 7.0 | 7.0 | 0.44 | 0.87 | 0.80 | 100 | 1013.1 |
| 20260906093156 | 72 | 76 | 5.0 | 5.0 | 0.44 | 0.87 | 0.80 | 100 | 1013.1 |
| 20260906092724 | 72 | 312 | 0.0 | 3.0 | 0.42 | 0.85 | 0.78 | 100 | 1012.9 |
| 20260906092222 | 72 | 90 | 3.0 | 3.0 | 0.38 | 0.81 | 0.74 | 100 | 1012.9 |
| 20260906092157 | 72 | 0 | 1.0 | 5.0 | 0.35 | 0.78 | 0.71 | 100 | 1012.9 |
| 20260906091723 | 72 | 306 | 2.0 | 4.0 | 0.28 | 0.71 | 0.64 | 100 | 1012.9 |
| 20260906091224 | 72 | 8 | 6.0 | 10.0 | 0.15 | 0.58 | 0.51 | 100 | 1012.6 |
| 20260906091156 | 72 | 40 | 5.0 | 11.0 | 0.12 | 0.55 | 0.48 | 100 | 1012.6 |
| 20260906090723 | 72 | 342 | 7.0 | 7.0 | 0.01 | 0.44 | 0.37 | 100 | 1012.6 |
| 20260906090224 | 72 | 0 | 7.0 | 7.0 | 0.01 | 0.44 | 0.37 | 100 | 1012.6 |
| 20260906090157 | 72 | 0 | 4.0 | 7.0 | 0.01 | 0.44 | 0.37 | 100 | 1012.6 |
| 20260906085722 | 71 | 350 | 0.0 | 0.0 | 0.01 | 0.44 | 0.37 | 100 | 1012.1 |
| 20260906085223 | 71 | 323 | 0.0 | 0.0 | 0.00 | 0.43 | 0.36 | 100 | 1012.1 |
| 20260906085156 | 71 | 284 | 0.0 | 0.0 | 0.00 | 0.43 | 0.36 | 100 | 1012.1 |
| 20260906084724 | 71 | 284 | 0.0 | 0.0 | 0.00 | 0.43 | 0.36 | 100 | 1012.1 |
| 20260906084222 | 71 | 328 | 0.0 | 0.0 | 0.00 | 0.43 | 0.36 | 100 | 1012.0 |
| 20260906084157 | 71 | 328 | 0.0 | 0.0 | 0.00 | 0.43 | 0.36 | 100 | 1012.0 |
| 20260906083723 | 71 | 356 | 0.0 | 0.0 | 0.00 | 0.43 | 0.36 | 100 | 1012.0 |
| 20260906083224 | 71 | 340 | 0.0 | 1.0 | 0.00 | 0.43 | 0.36 | 100 | 1012.0 |
| 20260906083159 | 71 | 340 | 1.0 | 1.0 | 0.00 | 0.43 | 0.36 | 100 | 1012.0 |
| 20260906082722 | 71 | 316 | 0.0 | 0.0 | 0.01 | 0.43 | 0.36 | 100 | 1012.1 |
| 20260906082223 | 71 | 316 | 0.0 | 2.0 | 0.01 | 0.43 | 0.36 | 100 | 1012.1 |
| 20260906082156 | 71 | 322 | 0.0 | 1.0 | 0.01 | 0.43 | 0.36 | 100 | 1012.1 |
| 20260906081724 | 71 | 0 | 5.0 | 5.0 | 0.09 | 0.43 | 0.36 | 100 | 1012.1 |
| 20260906081223 | 71 | 306 | 0.0 | 0.0 | 0.09 | 0.43 | 0.36 | 100 | 1011.6 |
| 20260906081157 | 71 | 306 | 0.0 | 0.0 | 0.09 | 0.43 | 0.36 | 100 | 1011.6 |
| 20260906080724 | 71 | 318 | 1.0 | 2.0 | 0.23 | 0.43 | 0.36 | 100 | 1011.6 |
| 20260906080222 | 71 | 294 | 0.0 | 0.0 | 0.23 | 0.43 | 0.36 | 100 | 1011.6 |
| 20260906080155 | 71 | 294 | 0.0 | 0.0 | 0.23 | 0.43 | 0.36 | 100 | 1011.6 |
| 20260906075723 | 71 | 243 | 1.0 | 1.0 | 0.23 | 0.43 | 0.36 | 100 | 1011.5 |
| 20260906075226 | 71 | 217 | 0.0 | 0.0 | 0.23 | 0.43 | 0.36 | 100 | 1011.5 |
| 20260906075223 | 71 | 217 | 0.0 | 0.0 | 0.23 | 0.43 | 0.36 | 100 | 1011.5 |
| 20260906075155 | 71 | 217 | 0.0 | 0.0 | 0.23 | 0.43 | 0.36 | 100 | 1011.5 |
| 20260906074723 | 71 | 131 | 0.0 | 0.0 | 0.23 | 0.43 | 0.36 | 100 | 1011.5 |
| 20260906074222 | 71 | 219 | 1.0 | 1.0 | 0.23 | 0.43 | 0.36 | 100 | 1011.5 |
| 20260906074201 | 71 | 281 | 0.0 | 0.0 | 0.23 | 0.43 | 0.36 | 100 | 1011.5 |
| 20260906073723 | 71 | 281 | 0.0 | 0.0 | 0.23 | 0.43 | 0.36 | 100 | 1011.5 |
| 20260906073223 | 71 | 281 | 0.0 | 1.0 | 0.23 | 0.43 | 0.36 | 100 | 1011.5 |
| 20260906073202 | 71 | 281 | 0.0 | 1.0 | 0.23 | 0.43 | 0.36 | 100 | 1011.5 |
| 20260906072722 | 71 | 326 | 0.0 | 1.0 | 0.23 | 0.43 | 0.36 | 100 | 1011.4 |
| 20260906072223 | 71 | 17 | 2.0 | 3.0 | 0.22 | 0.42 | 0.35 | 100 | 1011.4 |
| 20260906072156 | 71 | 0 | 3.0 | 5.0 | 0.22 | 0.42 | 0.35 | 100 | 1011.4 |
| 20260906071723 | 71 | 301 | 1.0 | 2.0 | 0.21 | 0.41 | 0.34 | 100 | 1011.4 |
| 20260906071222 | 71 | 337 | 2.0 | 3.0 | 0.14 | 0.34 | 0.27 | 100 | 1011.7 |
| 20260906071157 | 71 | 299 | 2.0 | 2.0 | 0.14 | 0.34 | 0.27 | 100 | 1011.7 |
| 20260906070723 | 71 | 289 | 2.0 | 5.0 | 0.11 | 0.31 | 0.24 | 100 | 1011.7 |
| 20260906070223 | 71 | 0 | 3.0 | 6.0 | 0.01 | 0.21 | 0.14 | 100 | 1011.7 |
| 20260906070156 | 71 | 343 | 3.0 | 3.0 | 0.00 | 0.20 | 0.13 | 100 | 1011.7 |
| 20260906065722 | 71 | 0 | 3.0 | 4.0 | 0.00 | 0.20 | 0.13 | 100 | 1011.7 |
| 20260906065226 | 71 | 0 | 3.0 | 5.0 | 0.00 | 0.20 | 0.13 | 100 | 1011.7 |
| 20260906065223 | 71 | 0 | 4.0 | 5.0 | 0.00 | 0.20 | 0.13 | 100 | 1011.7 |
| 20260906065155 | 71 | 0 | 3.0 | 5.0 | 0.00 | 0.20 | 0.13 | 100 | 1011.7 |
| 20260906064723 | 71 | 3 | 2.0 | 2.0 | 0.00 | 0.20 | 0.13 | 100 | 1011.7 |
| 20260906064228 | 71 | 78 | 2.0 | 2.0 | 0.00 | 0.20 | 0.13 | 100 | 1011.4 |
| 20260906064222 | 71 | 78 | 0.0 | 2.0 | 0.00 | 0.20 | 0.13 | 100 | 1011.4 |
| 20260906064157 | 71 | 78 | 2.0 | 2.0 | 0.00 | 0.20 | 0.13 | 100 | 1011.4 |
| 20260906063722 | 71 | 130 | 0.0 | 0.0 | 0.00 | 0.20 | 0.13 | 100 | 1011.4 |
| 20260906063222 | 71 | 106 | 0.0 | 0.0 | 0.00 | 0.20 | 0.13 | 100 | 1011.4 |
| 20260906063159 | 71 | 106 | 0.0 | 0.0 | 0.00 | 0.20 | 0.13 | 100 | 1011.4 |
| 20260906062723 | 71 | 107 | 1.0 | 2.0 | 0.02 | 0.20 | 0.13 | 100 | 1011.1 |
| 20260906062223 | 71 | 294 | 0.0 | 0.0 | 0.02 | 0.20 | 0.13 | 100 | 1011.1 |
| 20260906062159 | 71 | 294 | 0.0 | 1.0 | 0.02 | 0.20 | 0.13 | 100 | 1011.1 |
| 20260906061722 | 71 | 329 | 1.0 | 3.0 | 0.06 | 0.20 | 0.13 | 100 | 1011.1 |
| 20260906061223 | 72 | 333 | 3.0 | 4.0 | 0.06 | 0.20 | 0.13 | 100 | 1011.0 |
| 20260906061156 | 72 | 342 | 5.0 | 6.0 | 0.06 | 0.20 | 0.13 | 100 | 1011.0 |
| 20260906060723 | 72 | 343 | 4.0 | 4.0 | 0.13 | 0.20 | 0.13 | 100 | 1011.0 |
| 20260906060223 | 72 | 354 | 9.0 | 9.0 | 0.13 | 0.20 | 0.13 | 99 | 1011.0 |
| 20260906060156 | 72 | 311 | 2.0 | 4.0 | 0.13 | 0.20 | 0.13 | 99 | 1011.0 |
| 20260906055722 | 72 | 6 | 5.0 | 5.0 | 0.20 | 0.20 | 0.13 | 97 | 1011.0 |
| 20260906055222 | 72 | 339 | 3.0 | 3.0 | 0.20 | 0.20 | 0.13 | 97 | 1011.0 |
| 20260906055156 | 72 | 346 | 2.0 | 2.0 | 0.20 | 0.20 | 0.13 | 97 | 1011.0 |
| 20260906054723 | 72 | 311 | 4.0 | 4.0 | 0.20 | 0.20 | 0.13 | 97 | 1011.0 |
| 20260906054224 | 72 | 256 | 1.0 | 1.0 | 0.20 | 0.20 | 0.13 | 99 | 1011.1 |
| 20260906054205 | 72 | 256 | 1.0 | 3.0 | 0.20 | 0.20 | 0.13 | 99 | 1011.1 |
| 20260906053722 | 72 | 308 | 7.0 | 7.0 | 0.20 | 0.20 | 0.13 | 99 | 1011.1 |
| 20260906053222 | 72 | 319 | 3.0 | 3.0 | 0.20 | 0.20 | 0.13 | 99 | 1011.1 |
| 20260906053158 | 72 | 319 | 3.0 | 3.0 | 0.20 | 0.20 | 0.13 | 99 | 1011.1 |
| 20260906052723 | 72 | 274 | 5.0 | 9.0 | 0.20 | 0.20 | 0.13 | 99 | 1012.1 |
| 20260906052659 | 71 | 295 | 4.0 | 10.0 | 0.18 | 0.18 | 0.11 | 97 | 1012.1 |
| 20260906052223 | 71 | 272 | 4.0 | 6.0 | 0.19 | 0.19 | 0.12 | 97 | 1012.1 |
| 20260906052156 | 71 | 295 | 4.0 | 10.0 | 0.18 | 0.18 | 0.11 | 97 | 1012.1 |
| 20260906051722 | 72 | 325 | 3.0 | 11.0 | 0.17 | 0.17 | 0.10 | 93 | 1012.1 |
| 20260906051223 | 72 | 309 | 10.0 | 11.0 | 0.15 | 0.15 | 0.08 | 90 | 1012.5 |
| 20260906051155 | 73 | 320 | 7.0 | 7.0 | 0.15 | 0.15 | 0.08 | 90 | 1012.5 |
| 20260906050723 | 74 | 350 | 8.0 | 10.0 | 0.12 | 0.12 | 0.05 | 88 | 1012.5 |
| 20260906050223 | 76 | 354 | 2.0 | 14.0 | 0.08 | 0.08 | 0.01 | 83 | 1012.5 |
| 20260906050156 | 76 | 0 | 6.0 | 10.0 | 0.07 | 0.07 | 0.00 | 83 | 1012.5 |
| 20260906045724 | 77 | 0 | 8.0 | 10.0 | 0.02 | 0.02 | 0.02 | 80 | 1012.8 |
| 20260906045222 | 77 | 54 | 4.0 | 11.0 | 0.00 | 0.00 | 0.00 | 77 | 1012.8 |
| 20260906045158 | 77 | 14 | 6.0 | 14.0 | 0.00 | 0.00 | 0.00 | 77 | 1012.8 |
| 20260906044723 | 78 | 353 | 2.0 | 7.0 | 0.00 | 0.00 | 0.00 | 77 | 1012.8 |
| 20260906044224 | 79 | 38 | 9.0 | 12.0 | 0.00 | 0.00 | 0.00 | 97 | 1012.5 |
| 20260906044158 | 79 | 6 | 12.0 | 18.0 | 0.00 | 0.00 | 0.00 | 97 | 1012.5 |
| 20260906043722 | 79 | 73 | 6.0 | 9.0 | 0.00 | 0.00 | 0.00 | 97 | 1012.5 |
| 20260906043222 | 79 | 72 | 3.0 | 5.0 | 0.00 | 0.00 | 0.00 | 97 | 1012.5 |
| 20260906043156 | 79 | 113 | 3.0 | 5.0 | 0.00 | 0.00 | 0.00 | 97 | 1012.5 |
| 20260906042723 | 80 | 61 | 3.0 | 4.0 | 0.00 | 0.00 | 0.00 | 97 | 1011.9 |
| 20260906042223 | 80 | 99 | 2.0 | 3.0 | 0.00 | 0.00 | 0.00 | 96 | 1011.9 |
| 20260906042157 | 80 | 106 | 2.0 | 2.0 | 0.00 | 0.00 | 0.00 | 96 | 1011.9 |
| 20260906041724 | 80 | 152 | 1.0 | 1.0 | 0.00 | 0.00 | 0.00 | 96 | 1011.9 |
| 20260906041223 | 80 | 128 | 0.0 | 1.0 | 0.00 | 0.00 | 0.00 | 96 | 1012.0 |
| 20260906041157 | 80 | 130 | 1.0 | 3.0 | 0.00 | 0.00 | 0.00 | 96 | 1012.0 |
| 20260906040723 | 80 | 151 | 1.0 | 3.0 | 0.00 | 0.00 | 0.00 | 95 | 1012.0 |
| 20260906040224 | 80 | 165 | 2.0 | 3.0 | 0.00 | 0.00 | 0.00 | 95 | 1012.0 |
| 20260906040156 | 80 | 114 | 2.0 | 3.0 | 0.00 | 0.00 | 0.00 | 95 | 1012.0 |
| 20260906035723 | 80 | 158 | 0.0 | 1.0 | 0.00 | 0.00 | 0.00 | 95 | 1012.1 |
| 20260906035223 | 80 | 162 | 1.0 | 3.0 | 0.00 | 0.00 | 0.00 | 95 | 1012.1 |
| 20260906035158 | 80 | 106 | 1.0 | 3.0 | 0.00 | 0.00 | 0.00 | 95 | 1012.1 |
| 20260906034724 | 80 | 151 | 3.0 | 3.0 | 0.00 | 0.00 | 0.00 | 94 | 1012.1 |
| 20260906034222 | 80 | 161 | 1.0 | 1.0 | 0.00 | 0.00 | 0.00 | 93 | 1011.8 |
| 20260906034159 | 80 | 145 | 0.0 | 1.0 | 0.00 | 0.00 | 0.00 | 93 | 1011.8 |
| 20260906033723 | 80 | 96 | 0.0 | 0.0 | 0.00 | 0.00 | 0.00 | 92 | 1011.8 |
| 20260906033224 | 80 | 151 | 2.0 | 2.0 | 0.00 | 0.00 | 0.00 | 92 | 1011.8 |
| 20260906033203 | 80 | 161 | 0.0 | 2.0 | 0.00 | 0.00 | 0.00 | 91 | 1011.8 |
| 20260906032722 | 81 | 147 | 0.0 | 1.0 | 0.00 | 0.00 | 0.00 | 91 | 1011.8 |
| 20260906032223 | 81 | 102 | 1.0 | 3.0 | 0.00 | 0.00 | 0.00 | 91 | 1011.8 |
| 20260906032156 | 81 | 93 | 1.0 | 4.0 | 0.00 | 0.00 | 0.00 | 91 | 1011.8 |
| 20260906031722 | 81 | 114 | 0.0 | 0.0 | 0.00 | 0.00 | 0.00 | 91 | 1011.8 |
| 20260906031223 | 81 | 69 | 1.0 | 1.0 | 0.00 | 0.00 | 0.00 | 90 | 1011.3 |
| 20260906031156 | 81 | 78 | 1.0 | 2.0 | 0.00 | 0.00 | 0.00 | 90 | 1011.3 |
| 20260906030724 | 81 | 71 | 2.0 | 2.0 | 0.00 | 0.00 | 0.00 | 90 | 1011.3 |
| 20260906030222 | 81 | 188 | 0.0 | 0.0 | 0.00 | 0.00 | 0.00 | 90 | 1011.3 |
| 20260906030155 | 81 | 188 | 0.0 | 0.0 | 0.00 | 0.00 | 0.00 | 90 | 1011.3 |
| 20260906025723 | 81 | 182 | 0.0 | 0.0 | 0.00 | 0.00 | 0.00 | 90 | 1011.1 |
| 20260906025321 | 81 | 208 | 0.0 | 0.0 | 0.00 | 0.00 | 0.00 | 89 | 1011.1 |
| 20260906025224 | 81 | 155 | 0.0 | 0.0 | 0.00 | 0.00 | 0.00 | 89 | 1011.1 |
| 20260906025157 | 81 | 208 | 0.0 | 0.0 | 0.00 | 0.00 | 0.00 | 89 | 1011.1 |
| 20260906024722 | 81 | 208 | 0.0 | 0.0 | 0.00 | 0.00 | 0.00 | 89 | 1011.1 |
| 20260906024223 | 81 | 208 | 0.0 | 0.0 | 0.00 | 0.00 | 0.00 | 89 | 1011.0 |
| 20260906024157 | 81 | 208 | 0.0 | 0.0 | 0.00 | 0.00 | 0.00 | 89 | 1011.0 |
| 20260906023724 | 82 | 223 | 0.0 | 0.0 | 0.00 | 0.00 | 0.00 | 88 | 1011.0 |
| 20260906023222 | 82 | 198 | 0.0 | 0.0 | 0.00 | 0.00 | 0.00 | 88 | 1011.0 |
| 20260906023158 | 82 | 206 | 0.0 | 0.0 | 0.00 | 0.00 | 0.00 | 87 | 1011.0 |
| 20260906022722 | 82 | 186 | 0.0 | 0.0 | 0.00 | 0.00 | 0.00 | 87 | 1011.0 |
| 20260906022224 | 82 | 265 | 0.0 | 0.0 | 0.00 | 0.00 | 0.00 | 87 | 1011.0 |
| 20260906022156 | 82 | 265 | 0.0 | 0.0 | 0.00 | 0.00 | 0.00 | 87 | 1011.0 |
| 20260906021722 | 82 | 239 | 1.0 | 1.0 | 0.00 | 0.00 | 0.00 | 87 | 1011.0 |
| 20260906021223 | 82 | 232 | 1.0 | 1.0 | 0.00 | 0.00 | 0.00 | 87 | 1011.0 |
| 20260906021156 | 82 | 186 | 0.0 | 0.0 | 0.00 | 0.00 | 0.00 | 87 | 1011.0 |
| 20260906020723 | 83 | 237 | 0.0 | 2.0 | 0.00 | 0.00 | 0.00 | 86 | 1011.0 |
| 20260906020222 | 83 | 241 | 0.0 | 0.0 | 0.00 | 0.00 | 0.00 | 86 | 1011.0 |
| 20260906020157 | 83 | 241 | 0.0 | 1.0 | 0.00 | 0.00 | 0.00 | 86 | 1011.0 |
| 20260906015723 | 83 | 209 | 0.0 | 1.0 | 0.00 | 0.00 | 0.00 | 86 | 1010.8 |
| 20260906015223 | 83 | 216 | 0.0 | 2.0 | 0.00 | 0.00 | 0.00 | 85 | 1010.8 |
| 20260906015156 | 83 | 229 | 0.0 | 1.0 | 0.00 | 0.00 | 0.00 | 85 | 1010.8 |
| 20260906014723 | 83 | 212 | 0.0 | 0.0 | 0.00 | 0.00 | 0.00 | 85 | 1010.8 |
| 20260906014222 | 84 | 202 | 0.0 | 0.0 | 0.00 | 0.00 | 0.00 | 84 | 1010.4 |
| 20260906014157 | 84 | 202 | 0.0 | 0.0 | 0.00 | 0.00 | 0.00 | 84 | 1010.4 |
| 20260906013722 | 84 | 257 | 0.0 | 1.0 | 0.00 | 0.00 | 0.00 | 83 | 1010.4 |
| 20260906013223 | 84 | 219 | 0.0 | 1.0 | 0.00 | 0.00 | 0.00 | 82 | 1010.4 |
| 20260906013156 | 84 | 205 | 0.0 | 1.0 | 0.00 | 0.00 | 0.00 | 82 | 1010.4 |
| 20260906012723 | 84 | 265 | 2.0 | 2.0 | 0.00 | 0.00 | 0.00 | 82 | 1010.1 |
| 20260906012222 | 85 | 246 | 0.0 | 0.0 | 0.00 | 0.00 | 0.00 | 81 | 1010.1 |
| 20260906012157 | 85 | 240 | 0.0 | 1.0 | 0.00 | 0.00 | 0.00 | 81 | 1010.1 |
| 20260906011723 | 85 | 230 | 0.0 | 0.0 | 0.00 | 0.00 | 0.00 | 80 | 1010.1 |
| 20260906011251 | 85 | 241 | 2.0 | 2.0 | 0.00 | 0.00 | 0.00 | 79 | 1009.9 |
| 20260906011224 | 85 | 241 | 0.0 | 1.0 | 0.00 | 0.00 | 0.00 | 80 | 1009.9 |
| 20260906011157 | 85 | 241 | 2.0 | 2.0 | 0.00 | 0.00 | 0.00 | 79 | 1009.9 |
| 20260906010722 | 85 | 229 | 2.0 | 5.0 | 0.00 | 0.00 | 0.00 | 79 | 1009.9 |
| 20260906010223 | 85 | 232 | 1.0 | 3.0 | 0.00 | 0.00 | 0.00 | 77 | 1009.9 |
| 20260906010156 | 85 | 215 | 3.0 | 5.0 | 0.00 | 0.00 | 0.00 | 77 | 1009.9 |
| 20260906005724 | 86 | 193 | 4.0 | 4.0 | 0.00 | 0.00 | 0.00 | 76 | 1010.0 |
| 20260906005222 | 86 | 257 | 1.0 | 3.0 | 0.00 | 0.00 | 0.00 | 74 | 1010.0 |
| 20260906005157 | 86 | 261 | 3.0 | 3.0 | 0.00 | 0.00 | 0.00 | 71 | 1010.0 |
| 20260906004724 | 86 | 131 | 0.0 | 0.0 | 0.00 | 0.00 | 0.00 | 70 | 1010.0 |
| 20260906004222 | 86 | 131 | 0.0 | 0.0 | 0.00 | 0.00 | 0.00 | 70 | 1009.9 |
| 20260906004156 | 86 | 131 | 0.0 | 0.0 | 0.00 | 0.00 | 0.00 | 70 | 1009.9 |
| 20260906003724 | 86 | 131 | 0.0 | 0.0 | 0.00 | 0.00 | 0.00 | 70 | 1009.9 |
| 20260906003223 | 86 | 131 | 0.0 | 0.0 | 0.00 | 0.00 | 0.00 | 71 | 1009.9 |
| 20260906003155 | 86 | 131 | 0.0 | 0.0 | 0.00 | 0.00 | 0.00 | 71 | 1009.9 |
| 20260906002723 | 86 | 131 | 0.0 | 0.0 | 0.00 | 0.00 | 0.00 | 71 | 1009.8 |
| 20260906002223 | 87 | 131 | 0.0 | 0.0 | 0.00 | 0.00 | 0.00 | 71 | 1009.8 |
| 20260906002155 | 87 | 131 | 0.0 | 0.0 | 0.00 | 0.00 | 0.00 | 71 | 1009.8 |
| 20260906001723 | 87 | 131 | 0.0 | 0.0 | 0.00 | 0.00 | 0.00 | 71 | 1009.8 |
| 20260906001222 | 87 | 131 | 0.0 | 0.0 | 0.00 | 0.00 | 0.00 | 71 | 1009.9 |
| 20260906001157 | 87 | 131 | 0.0 | 0.0 | 0.00 | 0.00 | 0.00 | 71 | 1009.9 |
| 20260906000723 | 88 | 131 | 0.0 | 0.0 | 0.00 | 0.00 | 0.00 | 70 | 1009.9 |
| 20260906000223 | 88 | 131 | 0.0 | 0.0 | 0.00 | 0.00 | 0.00 | 70 | 1009.9 |
| 20260906000157 | 88 | 131 | 0.0 | 0.0 | 0.00 | 0.00 | 0.00 | 70 | 1009.9 |
| 20260905235914 | 92 | 236 | 0.0 | 1.0 | 0.00 | 0.29 | 0.01 | 66 | 1014.4 |
| 20260905235912 | 92 | 267 | 1.0 | 2.0 | 0.00 | 0.29 | 0.01 | 65 | 1014.4 |
| 20260905235909 | 93 | 223 | 2.0 | 2.0 | 0.00 | 0.29 | 0.01 | 64 | 1014.4 |
| 20260905235723 | 88 | 131 | 0.0 | 1.0 | 0.00 | 0.00 | 0.00 | 70 | 1010.0 |
| 20260905235223 | 89 | 131 | 1.0 | 1.0 | 0.00 | 0.00 | 0.00 | 70 | 1010.0 |
| 20260905235158 | 89 | 131 | 0.0 | 1.0 | 0.00 | 0.00 | 0.00 | 70 | 1010.0 |
| 20260905234722 | 89 | 131 | 0.0 | 1.0 | 0.00 | 0.00 | 0.00 | 70 | 1010.0 |
| 20260905234223 | 89 | 131 | 0.0 | 0.0 | 0.00 | 0.00 | 0.00 | 69 | 1009.9 |
| 20260905234156 | 90 | 131 | 0.0 | 0.0 | 0.00 | 0.00 | 0.00 | 69 | 1009.9 |
| 20260905233723 | 90 | 131 | 1.0 | 1.0 | 0.00 | 0.01 | 0.00 | 69 | 1009.9 |
| 20260905233222 | 90 | 131 | 0.0 | 0.0 | 0.00 | 0.01 | 0.00 | 69 | 1009.9 |
| 20260905233157 | 90 | 131 | 0.0 | 0.0 | 0.00 | 0.01 | 0.00 | 68 | 1009.9 |
| 20260905232724 | 90 | 131 | 0.0 | 0.0 | 0.00 | 0.01 | 0.00 | 68 | 1010.0 |
| 20260905232222 | 90 | 131 | 0.0 | 1.0 | 0.00 | 0.01 | 0.00 | 67 | 1010.0 |
| 20260905232159 | 90 | 131 | 0.0 | 0.0 | 0.00 | 0.01 | 0.00 | 67 | 1010.0 |
| 20260905231724 | 91 | 131 | 0.0 | 0.0 | 0.00 | 0.01 | 0.00 | 65 | 1010.0 |
| 20260905231223 | 91 | 131 | 0.0 | 0.0 | 0.00 | 0.01 | 0.00 | 65 | 1009.9 |
| 20260905231156 | 91 | 131 | 0.0 | 0.0 | 0.00 | 0.01 | 0.00 | 65 | 1009.9 |
| 20260905230724 | 91 | 131 | 0.0 | 1.0 | 0.00 | 0.01 | 0.00 | 65 | 1009.9 |
| 20260905230223 | 91 | 131 | 1.0 | 1.0 | 0.00 | 0.01 | 0.00 | 65 | 1009.9 |
| 20260905230155 | 91 | 131 | 1.0 | 2.0 | 0.00 | 0.01 | 0.00 | 64 | 1009.9 |
| 20260905225722 | 91 | 82 | 2.0 | 2.0 | 0.00 | 0.01 | 0.00 | 64 | 1009.9 |
| 20260905225224 | 91 | 113 | 0.0 | 1.0 | 0.00 | 0.01 | 0.00 | 64 | 1009.9 |
| 20260905225157 | 91 | 103 | 0.0 | 2.0 | 0.00 | 0.01 | 0.00 | 64 | 1009.9 |
| 20260905224722 | 92 | 96 | 2.0 | 2.0 | 0.00 | 0.01 | 0.00 | 63 | 1009.9 |
| 20260905224223 | 92 | 116 | 1.0 | 2.0 | 0.00 | 0.01 | 0.00 | 61 | 1009.9 |
| 20260905224156 | 92 | 109 | 0.0 | 2.0 | 0.00 | 0.01 | 0.00 | 61 | 1009.9 |
| 20260905223723 | 92 | 110 | 0.0 | 2.0 | 0.00 | 0.01 | 0.00 | 61 | 1009.9 |
| 20260905223222 | 92 | 136 | 1.0 | 2.0 | 0.00 | 0.01 | 0.00 | 64 | 1009.9 |
| 20260905223155 | 92 | 88 | 1.0 | 1.0 | 0.00 | 0.01 | 0.00 | 60 | 1009.9 |
| 20260905222723 | 92 | 88 | 1.0 | 1.0 | 0.00 | 0.01 | 0.00 | 62 | 1009.8 |
| 20260905222231 | 92 | 76 | 0.0 | 1.0 | 0.00 | 0.01 | 0.00 | 61 | 1009.8 |
| 20260905222223 | 92 | 76 | 0.0 | 1.0 | 0.00 | 0.01 | 0.00 | 61 | 1009.8 |
| 20260905222156 | 92 | 76 | 0.0 | 1.0 | 0.00 | 0.01 | 0.00 | 61 | 1009.8 |
| 20260905221723 | 92 | 76 | 0.0 | 0.0 | 0.00 | 0.01 | 0.00 | 59 | 1009.8 |
| 20260905221222 | 93 | 18 | 0.0 | 0.0 | 0.00 | 0.01 | 0.00 | 58 | 1009.7 |
| 20260905221157 | 93 | 18 | 0.0 | 0.0 | 0.00 | 0.01 | 0.00 | 58 | 1009.7 |
| 20260905220723 | 93 | 13 | 0.0 | 1.0 | 0.00 | 0.01 | 0.00 | 58 | 1009.7 |
| 20260905220223 | 93 | 64 | 1.0 | 3.0 | 0.00 | 0.01 | 0.00 | 60 | 1009.7 |
| 20260905220156 | 93 | 52 | 3.0 | 3.0 | 0.00 | 0.01 | 0.00 | 60 | 1009.7 |
| 20260905215722 | 93 | 76 | 0.0 | 2.0 | 0.00 | 0.01 | 0.00 | 58 | 1009.7 |
| 20260905215222 | 93 | 157 | 0.0 | 0.0 | 0.00 | 0.01 | 0.00 | 61 | 1009.7 |
| 20260905215155 | 93 | 157 | 0.0 | 0.0 | 0.00 | 0.01 | 0.00 | 61 | 1009.7 |
| 20260905214723 | 93 | 164 | 1.0 | 2.0 | 0.00 | 0.01 | 0.00 | 58 | 1009.7 |
| 20260905214222 | 94 | 55 | 0.0 | 1.0 | 0.00 | 0.01 | 0.00 | 58 | 1009.9 |
| 20260905214157 | 94 | 41 | 0.0 | 1.0 | 0.00 | 0.01 | 0.00 | 58 | 1009.9 |
| 20260905213722 | 94 | 93 | 1.0 | 3.0 | 0.00 | 0.01 | 0.00 | 56 | 1009.9 |
| 20260905213223 | 94 | 0 | 0.0 | 4.0 | 0.00 | 0.01 | 0.00 | 57 | 1009.9 |
| 20260905213156 | 94 | 31 | 4.0 | 4.0 | 0.00 | 0.01 | 0.00 | 56 | 1009.9 |
| 20260905212724 | 94 | 147 | 1.0 | 3.0 | 0.00 | 0.01 | 0.00 | 54 | 1010.1 |
| 20260905212223 | 94 | 49 | 1.0 | 2.0 | 0.00 | 0.01 | 0.00 | 57 | 1010.1 |
| 20260905212156 | 94 | 68 | 0.0 | 0.0 | 0.00 | 0.01 | 0.00 | 57 | 1010.1 |
| 20260905211722 | 94 | 68 | 0.0 | 1.0 | 0.00 | 0.01 | 0.00 | 55 | 1010.1 |
| 20260905211223 | 95 | 49 | 3.0 | 3.0 | 0.00 | 0.01 | 0.00 | 57 | 1010.2 |
| 20260905211156 | 95 | 64 | 3.0 | 4.0 | 0.00 | 0.01 | 0.00 | 54 | 1010.2 |
| 20260905210722 | 95 | 58 | 0.0 | 0.0 | 0.00 | 0.01 | 0.00 | 58 | 1010.2 |
| 20260905210222 | 95 | 16 | 1.0 | 1.0 | 0.00 | 0.01 | 0.00 | 58 | 1010.2 |
| 20260905210157 | 95 | 16 | 1.0 | 2.0 | 0.00 | 0.01 | 0.00 | 54 | 1010.2 |
| 20260905205723 | 96 | 119 | 1.0 | 1.0 | 0.00 | 0.01 | 0.00 | 53 | 1010.3 |
| 20260905205223 | 95 | 71 | 0.0 | 0.0 | 0.00 | 0.01 | 0.00 | 52 | 1010.3 |
| 20260905205156 | 95 | 71 | 0.0 | 0.0 | 0.00 | 0.01 | 0.00 | 52 | 1010.3 |
| 20260905204723 | 95 | 86 | 0.0 | 0.0 | 0.00 | 0.01 | 0.00 | 53 | 1010.3 |
| 20260905204224 | 95 | 86 | 2.0 | 2.0 | 0.00 | 0.01 | 0.00 | 54 | 1010.3 |
| 20260905204155 | 95 | 10 | 2.0 | 4.0 | 0.00 | 0.01 | 0.00 | 54 | 1010.3 |
| 20260905203722 | 95 | 45 | 3.0 | 5.0 | 0.00 | 0.01 | 0.00 | 53 | 1010.3 |
| 20260905203223 | 95 | 78 | 3.0 | 5.0 | 0.00 | 0.01 | 0.00 | 53 | 1010.3 |
| 20260905203157 | 95 | 45 | 2.0 | 4.0 | 0.00 | 0.01 | 0.00 | 55 | 1010.3 |
| 20260905202724 | 95 | 32 | 3.0 | 3.0 | 0.00 | 0.01 | 0.00 | 54 | 1010.6 |
| 20260905202222 | 95 | 76 | 3.0 | 6.0 | 0.00 | 0.01 | 0.00 | 53 | 1010.6 |
| 20260905202156 | 95 | 110 | 3.0 | 5.0 | 0.00 | 0.01 | 0.00 | 53 | 1010.6 |
| 20260905201723 | 95 | 346 | 3.0 | 3.0 | 0.00 | 0.01 | 0.00 | 54 | 1010.6 |
| 20260905201223 | 95 | 0 | 3.0 | 5.0 | 0.00 | 0.01 | 0.00 | 53 | 1010.7 |
| 20260905201155 | 95 | 13 | 3.0 | 6.0 | 0.00 | 0.01 | 0.00 | 53 | 1010.7 |
| 20260905200724 | 95 | 80 | 3.0 | 5.0 | 0.00 | 0.01 | 0.00 | 52 | 1010.7 |
| 20260905200223 | 95 | 18 | 2.0 | 4.0 | 0.00 | 0.01 | 0.00 | 52 | 1010.7 |
| 20260905200155 | 95 | 79 | 4.0 | 4.0 | 0.00 | 0.01 | 0.00 | 52 | 1010.7 |
| 20260905195723 | 95 | 49 | 4.0 | 6.0 | 0.00 | 0.01 | 0.00 | 55 | 1010.7 |
| 20260905195224 | 95 | 85 | 0.0 | 1.0 | 0.00 | 0.01 | 0.00 | 54 | 1010.7 |
| 20260905195157 | 95 | 48 | 2.0 | 3.0 | 0.00 | 0.01 | 0.00 | 57 | 1010.7 |